Location: Stuttgart
(48.8069°N, 9.1544°E)
Time: 02:54:43
(UTC+01:00)

ISS - Pass Details

Date: 04 January 2018
Orbit: 402 x 407 km, 51.6° (Epoch: 23 January)

Event Time Altitude Azimuth Distance (km) Brightness Sun altitude
Exits shadow 06:52:50 24° 291° (WNW) 881 -2.8 -13.0°
Maximum altitude 06:54:29 50° 356° (N) 530 -3.4 -12.8°
Drops below altitude 10° 06:57:42 10° 74° (ENE) 1,473 -0.2 -12.3°
Sets 06:59:50 0° 79° (E) 2,335 1.1 -12.0°
